sat.trackr.live / text

‹ back to catalog

STARLINK-5926

NORAD 55944 · 2023-037AG

PAYLOAD ACTIVE UNKNOWN

§ Identity

Operator
Country
US
Launch date
2023-03-17
Launch site
AFWTR
Launch vehicle
Mass (kg)
RCS (m²)

Purposes: comms

External: N2YO · Heavens-Above · Gunter

§ Orbital elements

Epoch: 2026-05-25T03:08:43.800864Z

Period
96.11 min
Inclination
69.9997°
Eccentricity
0.0003396
Mean motion
14.98333552 rev/d
Perigee alt
569.7 km
Apogee alt
574.4 km
Semi-major
6,950.2 km
B*
8.0675e-5
RAAN
91.5898°
Arg perigee
265.7509°
Mean anomaly
94.3262°
Rev number
17,543

§ Raw data

STARLINK-59261 55944U 23037AG  26145.13106251  .00000870  00000+0  80675-4 0  99932 55944  69.9997  91.5898 0003396 265.7509  94.3262 14.98333552175432

JSON: /api/v1/satellites/55944 · /tle

For live sub-satellite position, see the globe view (requires WebGL).

§ Visibility from observer

Set your observer location to see the next 7 days of passes ≥ 10°. The values pass through the URL so the page stays shareable.

No JS? Fill the form by hand. The geolocation button needs JavaScript.